| time (UTC) | temp F | wind direction | speed MPH | gust MPH | rain 1hr in | rain 24hr in | rain mn in | humidity % | barometer mb |
| 20260505080003 | 50 | 199 | 0.0 | 3.0 | 0.00 | 0.00 | 0.00 | 91 | 1011.3 |
| 20260505073013 | 50 | 181 | 0.0 | 4.0 | 0.00 | 0.00 | 0.00 | 90 | 1011.5 |
| 20260505071517 | 50 | 190 | 0.0 | 2.0 | 0.00 | 0.00 | 0.00 | 90 | 1011.4 |
| 20260505070019 | 50 | 203 | 0.0 | 1.0 | 0.00 | 0.00 | 0.00 | 90 | 1011.5 |
| 20260505064503 | 50 | 122 | 0.0 | 2.0 | 0.00 | 0.00 | 0.00 | 90 | 1011.4 |
| 20260505063008 | 50 | 224 | 0.0 | 2.0 | 0.00 | 0.00 | 0.00 | 90 | 1011.5 |
| 20260505061516 | 50 | 148 | 0.0 | 4.0 | 0.00 | 0.00 | 0.00 | 89 | 1011.4 |
| 20260505060016 | 50 | 214 | 1.0 | 5.0 | 0.00 | 0.00 | 0.00 | 89 | 1011.5 |
| 20260505054540 | 50 | 219 | 0.0 | 2.0 | 0.00 | 0.00 | 0.00 | 89 | 1011.4 |
| 20260505053008 | 50 | 237 | 0.0 | 3.0 | 0.00 | 0.00 | 0.00 | 89 | 1011.3 |
| 20260505051512 | 50 | 191 | 1.0 | 3.0 | 0.00 | 0.00 | 0.00 | 89 | 1011.4 |
| 20260505041507 | 51 | 105 | 0.0 | 4.0 | 0.00 | 0.00 | 0.00 | 87 | 1011.6 |
| 20260505040014 | 51 | 218 | 0.0 | 5.0 | 0.00 | 0.00 | 0.00 | 86 | 1011.7 |
| 20260505034524 | 51 | 148 | 0.0 | 2.0 | 0.00 | 0.00 | 0.00 | 85 | 1011.6 |
| 20260505033022 | 51 | 179 | 0.0 | 4.0 | 0.00 | 0.00 | 0.00 | 85 | 1011.8 |
| 20260505031523 | 51 | 203 | 0.0 | 2.0 | 0.00 | 0.00 | 0.00 | 84 | 1011.8 |
| 20260505030040 | 52 | 259 | 1.0 | 4.0 | 0.00 | 0.00 | 0.00 | 83 | 1011.8 |
| 20260505024517 | 52 | 212 | 0.0 | 3.0 | 0.00 | 0.00 | 0.00 | 83 | 1011.8 |
| 20260505023019 | 52 | 140 | 1.0 | 4.0 | 0.00 | 0.00 | 0.00 | 82 | 1011.9 |
| 20260505021523 | 52 | 70 | 1.0 | 7.0 | 0.00 | 0.00 | 0.00 | 81 | 1011.9 |
| 20260505020026 | 52 | 193 | 1.0 | 5.0 | 0.00 | 0.00 | 0.00 | 80 | 1011.9 |
| 20260505014532 | 52 | 233 | 1.0 | 4.0 | 0.00 | 0.00 | 0.00 | 79 | 1011.8 |
| 20260505013019 | 53 | 198 | 0.0 | 5.0 | 0.00 | 0.00 | 0.00 | 78 | 1011.6 |
| 20260505011520 | 53 | 219 | 1.0 | 5.0 | 0.00 | 0.00 | 0.00 | 76 | 1011.3 |
| 20260505010024 | 53 | 223 | 1.0 | 7.0 | 0.00 | 0.00 | 0.00 | 75 | 1011.1 |
| 20260505004545 | 54 | 226 | 2.0 | 9.0 | 0.00 | 0.00 | 0.00 | 74 | 1011.0 |
| 20260505003027 | 54 | 233 | 1.0 | 8.0 | 0.00 | 0.00 | 0.00 | 73 | 1010.7 |
| 20260505001518 | 54 | 115 | 1.0 | 5.0 | 0.00 | 0.00 | 0.00 | 73 | 1010.2 |
| 20260505000023 | 54 | 230 | 1.0 | 8.0 | 0.00 | 0.00 | 0.00 | 72 | 1010.3 |
| 20260504234506 | 54 | 243 | 1.0 | 8.0 | 0.00 | 0.00 | 0.00 | 71 | 1010.1 |
| 20260504233003 | 54 | 209 | 0.0 | 8.0 | 0.00 | 0.00 | 0.00 | 71 | 1009.9 |
| 20260504230003 | 55 | 213 | 1.0 | 6.0 | 0.00 | 0.00 | 0.00 | 69 | 1009.6 |
| 20260504224505 | 56 | 221 | 2.0 | 8.0 | 0.00 | 0.00 | 0.00 | 67 | 1009.5 |
| 20260504223006 | 57 | 219 | 2.0 | 8.0 | 0.00 | 0.00 | 0.00 | 64 | 1009.3 |
| 20260504221504 | 58 | 114 | 2.0 | 7.0 | 0.00 | 0.00 | 0.00 | 64 | 1009.3 |
| 20260504214506 | 59 | 53 | 2.0 | 8.0 | 0.00 | 0.00 | 0.00 | 61 | 1009.3 |
| 20260504213019 | 60 | 196 | 2.0 | 10.0 | 0.00 | 0.00 | 0.00 | 60 | 1009.1 |
| 20260504211507 | 60 | 119 | 1.0 | 6.0 | 0.00 | 0.00 | 0.00 | 59 | 1009.1 |
| 20260504210008 | 61 | 169 | 2.0 | 6.0 | 0.00 | 0.00 | 0.00 | 56 | 1009.0 |
| 20260504204511 | 63 | 207 | 1.0 | 9.0 | 0.00 | 0.00 | 0.00 | 53 | 1009.0 |
| 20260504203009 | 64 | 151 | 2.0 | 11.0 | 0.00 | 0.00 | 0.00 | 47 | 1008.8 |
| 20260504201509 | 64 | 119 | 4.0 | 15.0 | 0.00 | 0.00 | 0.00 | 43 | 1008.7 |
| 20260504200010 | 65 | 213 | 4.0 | 10.0 | 0.00 | 0.00 | 0.00 | 43 | 1008.7 |
| 20260504194515 | 65 | 259 | 4.0 | 13.0 | 0.00 | 0.00 | 0.00 | 44 | 1008.7 |
| 20260504193011 | 66 | 153 | 4.0 | 15.0 | 0.00 | 0.00 | 0.00 | 43 | 1008.6 |
| 20260504191513 | 66 | 134 | 2.0 | 10.0 | 0.00 | 0.00 | 0.00 | 45 | 1008.7 |
| 20260504190017 | 66 | 200 | 3.0 | 8.0 | 0.00 | 0.00 | 0.00 | 50 | 1008.7 |
| 20260504184529 | 66 | 165 | 3.0 | 9.0 | 0.00 | 0.00 | 0.00 | 49 | 1009.0 |
| 20260504183014 | 66 | 119 | 2.0 | 10.0 | 0.00 | 0.00 | 0.00 | 50 | 1009.0 |
| 20260504180014 | 67 | 176 | 3.0 | 10.0 | 0.00 | 0.00 | 0.00 | 45 | 1008.9 |
| 20260504174507 | 67 | 248 | 4.0 | 12.0 | 0.00 | 0.00 | 0.00 | 43 | 1008.8 |
| 20260504173013 | 68 | 158 | 3.0 | 12.0 | 0.00 | 0.00 | 0.00 | 39 | 1008.9 |
| 20260504171504 | 68 | 131 | 2.0 | 11.0 | 0.00 | 0.00 | 0.00 | 37 | 1009.2 |
| 20260504081517 | 42 | 186 | 0.0 | 0.0 | 0.00 | 0.01 | 0.00 | 74 | 1011.0 |